Regional Weather Roundup
Issued by NWS

Home | Current Version | Previous Version | Graphics & Text | Print | Product List | Glossary On
Versions: 1 2 3 4 5 6 7 8 9 10 11 12 13 14 15 16 17 18 19 20 21 22 23 24 25 26 27 28 29 30 31 32 33 34 35 36 37 38 39 40 41 42 43 44 45 46 47 48 49 50
000
ASUS43 KFSD 060702
RWRSD

WEATHER ROUNDUP FOR SOUTH DAKOTA
NATIONAL WEATHER SERVICE SIOUX FALLS SD
100 AM CST TUE DEC 06 2016

NOTE: "FAIR" INDICATES FEW OR NO CLOUDS BELOW 12,000 FEET WITH NO
SIGNIFICANT WEATHER AND/OR OBSTRUCTIONS TO VISIBILITY.


SDZ001>005-009-010-012>017-060800-
NORTHWEST AND NORTH CENTRAL SOUTH DAKOTA

CITY           SKY/WX    TMP DP  RH WIND       PRES   REMARKS
BUFFALO          N/A      7   0  73 NW29G43   29.82R WCI -16
FAITH            N/A     10   6  84 NW31G39   29.85R WCI -13
MOBRIDGE       CLOUDY    13   5  70 W35G46    29.75F BLWGSNOWWCI -10
$$

SDZ012>016-024>037-041>051-057-063-072>074-060800-
SOUTHWEST AND SOUTH CENTRAL SOUTH DAKOTA

CITY           SKY/WX    TMP DP  RH WIND       PRES   REMARKS
RAPID CTY ARPT CLEAR     14   2  58 NW15      29.88R WCI  -1
PIERRE         CLOUDY    16   7  67 NW26G38   29.88F WCI  -3
CUSTER         CLEAR     10  -4  53 NW12G30   29.76S WCI  -5
ELLSWORTH AFB  CLEAR     15   2  56 N14       29.87S WCI   0
PHILIP         MOCLDY    16   7  67 NW23G35   29.93S WCI  -2
PINE RIDGE     CLEAR     11   7  84 W12       29.93R WCI  -3
SPEARFISH      FAIR      12   0  57 W16       29.91S WCI  -4
WINNER         FAIR      18   8  65 NW23G32   29.91F WCI   0
$$

SDZ004>011-016>023-039-040-060800-
NORTHEAST SOUTH DAKOTA

CITY           SKY/WX    TMP DP  RH WIND       PRES   REMARKS
ABERDEEN       CLOUDY    17   8  67 W23G32    29.72S WCI  -1
WATERTOWN      FLURRIES  16  10  77 W23G37    29.68R WCI  -2
SISSETON         N/A     18  11  74 W33G47    29.60R WCI  -2
$$

SDZ017-020-022-023-036>040-048>070-060800-
SOUTHEAST SOUTH DAKOTA

CITY           SKY/WX    TMP DP  RH WIND       PRES   REMARKS
SIOUX FALLS    CLOUDY    21  14  74 W21       29.82R WCI   5
HURON          CLEAR     15   8  73 W22G33    29.85R WCI  -3
MITCHELL       PTCLDY    18  10  71 NW22G32   29.89R WCI   1
YANKTON        MOCLDY   N/A N/A N/A W24       29.88R
$$

ABBREVIATIONS USED IN REMARKS
   TC - TEMPERATURE IN CELSIUS
  WCI - WIND CHILL INDEX
   HX - HEAT INDEX
  VSB - VISIBILITY




USA.gov is the U.S. government's official web portal to all federal, state and local government web resources and services.